Regional Weather Roundup
Issued by NWS

Home | Current Version | Previous Version | Graphics & Text | Print | Product List | Glossary On
Versions: 1 2 3 4 5 6 7 8 9 10 11 12 13 14 15 16 17 18 19 20 21 22 23 24 25 26 27 28 29 30 31 32 33 34 35 36 37 38 39 40 41 42 43 44 45 46 47 48 49 50
000
ASUS43 KOAX 232310
RWRNE

WEATHER ROUNDUP FOR NEBRASKA
NATIONAL WEATHER SERVICE OMAHA NE
600 PM CDT THU MAR 23 2017

NOTES: SATELLITE DATA IS BEING USED TO AUGMENT CLOUD COVER ABOVE
       12000 FEET.
       "FAIR" INDICATES FEW OR NO CLOUDS BELOW 12,000 FEET WITH NO
       SIGNIFICANT WEATHER AND/OR OBSTRUCTIONS TO VISIBILITY.

  * THESE STATIONS DO NOT REPORT WEATHER SUCH AS RAIN...SNOW OR FOG.

NEZ001>004-019>022-054>056-240000-
NEBRASKA PANHANDLE

CITY           SKY/WX    TMP DP  RH WIND       PRES   REMARKS
SCOTTSBLUFF    CLOUDY    63  38  39 N16G23    29.59R THUNDER
ALLIANCE       SUNNY     66  40  38 N30G37    29.56S
CHADRON        CLOUDY    57  42  57 N28G36    29.67R
KIMBALL        CLOUDY    72  27  18 SW12G22   29.55F
SIDNEY         SUNNY     74  27  17 E12       29.53S
$$

NEZ057>060-069>072-079>082-240000-
SOUTHWEST NEBRASKA

CITY           SKY/WX    TMP DP  RH WIND       PRES   REMARKS
NORTH PLATTE   SUNNY     74  56  53 E7        29.53F
IMPERIAL       MOSUNNY   75  45  34 E15       29.48F
LEXINGTON      SUNNY     80  53  40 S23G32    29.51F
MCCOOK         PTSUNNY   83  48  29 S13       29.46F
OGALLALA       SUNNY     76  44  31 E10       29.52S
$$

NEZ005>010-023>029-035>040-094-240000-
NORTH CENTRAL NEBRASKA

CITY           SKY/WX    TMP DP  RH WIND       PRES   REMARKS
VALENTINE      MOSUNNY   66  44  45 CALM      29.60R
AINSWORTH      SUNNY     61  51  70 S6        29.59F
BROKEN BOW     SUNNY     67  31  26 NE9       29.55F
O`NEILL        CLOUDY    57  55  92 CALM      29.62S FOG
ORD            CLOUDY    64  57  78 NE3       29.57R HAZE
THEDFORD       SUNNY     71  52  51 SE7       29.57S
$$

NEZ041-046>049-061>064-073>077-083>087-240000-
SOUTH CENTRAL NEBRASKA

CITY           SKY/WX    TMP DP  RH WIND       PRES   REMARKS
GRAND ISLAND   SUNNY     73  58  59 S16G24    29.59F
AURORA         MOSUNNY   72  55  56 S18G24    29.60F
HASTINGS       SUNNY     75  56  51 S14G31    29.59F
HEBRON         MOSUNNY   72  56  58 S21G32    29.63F
HOLDREGE       MOSUNNY   77  51  39 S26G32    29.53F
KEARNEY *      MOSUNNY   77  54  44 S20G28    29.56F
YORK           PTSUNNY   72  55  56 S22G29    29.63F
$$

NEZ011>018-030>034-042>045-240000-
NORTHEAST NEBRASKA

CITY           SKY/WX    TMP DP  RH WIND       PRES   REMARKS
NORFOLK        CLOUDY    61  51  70 SE10      29.62F
ALBION         CLOUDY    65  56  70 SE14      29.59F
BLAIR          PTSUNNY   73  52  47 S18G24    29.65F THUNDER
FREMONT        CLOUDY    72  51  47 S8        29.65S
TEKAMAH        PTSUNNY   67  48  50 SE15      29.63F
WAYNE          CLOUDY    60  49  65 SE10      29.65F
$$

NEZ050>053-065>068-078-088>093-240000-
SOUTHEAST NEBRASKA

CITY           SKY/WX    TMP DP  RH WIND       PRES   REMARKS
LINCOLN        CLOUDY    73  53  49 S15G24    29.65S
OMAHA EPPLEY   PTSUNNY   75  51  43 S14       29.65F
BEATRICE       CLOUDY    73  55  52 S24G30    29.64F
FALLS CITY     MOSUNNY   79  52  38 S18G30    29.69F
NEBRASKA CITY  PTSUNNY   75  44  33 S22G30    29.68F
PLATTSMOUTH    PTSUNNY   75  46  36 S20G30    29.67S
$$

NEZ044-045-051>053-067-240000-
OMAHA AREA

CITY           SKY/WX    TMP DP  RH WIND       PRES   REMARKS
OMAHA EPPLEY   PTSUNNY   75  51  43 S14       29.65F
BLAIR          PTSUNNY   73  52  47 S18G24    29.65F THUNDER
FREMONT        CLOUDY    72  51  47 S8        29.65S
MILLARD        CLOUDY    76  54  45 S13G22    29.66S THUNDER
OFFUTT AFB     PTSUNNY   75  51  43 S17G25    29.66F
PLATTSMOUTH    PTSUNNY   75  46  36 S20G30    29.67S
WAHOO          FAIR      73  50  44 S15       29.65F
$$




USA.gov is the U.S. government's official web portal to all federal, state and local government web resources and services.